Vorticity
16 4 15 6 4 12 19 -3 13 5 0 16 32 2 5 -3 7 15 20 8 21 14 -20 22 4 6 11 14 12 8 7 6 5 6 6 6 6 7 7 7 6 6 6 6
16 2 8 1 8 18 3 5 10 25 -1 7 5 36 -4 6 7 4 25 43 16 -6 37 -41 -23 6 18 20 17 11 8 6 6 7 7 5 5 6 7 6 6 6 6 6
11 5 12 7 13 20 19 -3 12 8 22 21 7 26 7 7 2 -4 10 9 7 8 12 35 38 -44 8 10 10 10 10 8 6 6 6 6 6 6 6 7 8 7 7 7
-4 4 -3 17 15 3 16 14 5 8 14 5 8 -6 19 33 15 7 -3 24 4 17 10 3 1 1 -18 19 19 8 5 7 8 6 5 7 8 7 8 9 7 7 7 7
8 -1 4 7 18 3 -3 26 16 15 5 16 11 11 -12 45 9 3 1 -1 10 20 12 15 19 31 26 17 15 -2 -6 7 7 8 7 6 8 8 6 5 7 7 7 7
14 9 5 -5 23 12 6 43 -1 10 12 9 1 22 6 -2 3 4 18 21 15 -2 7 17 1 5 6 15 13 20 42 -2 2 5 9 9 8 8 8 7 7 8 8 8
26 14 3 -9 17 -6 7 35 -5 8 6 -1 -9 25 16 11 5 18 23 6 9 20 5 8 20 2 3 9 29 4 -15 19 21 1 10 11 10 8 7 6 6 5 8 7
6 2 6 4 14 11 9 10 26 10 5 -13 38 9 4 7 -1 4 3 12 12 12 12 13 15 15 7 8 23 32 29 10 4 12 -4 9 9 7 7 7 7 7 6 8
14 -6 14 -9 24 5 3 1 14 16 16 17 4 6 12 21 21 17 -1 4 15 18 22 8 10 14 17 4 5 5 10 9 17 25 18 14 3 4 8 7 7 7 7 6
-2 12 4 -2 20 -1 6 7 6 8 9 14 5 16 15 -22 7 2 5 2 4 -4 -6 8 20 14 8 10 10 5 34 18 -6 13 2 14 12 11 0 7 9 7 4 5
14 8 -28 -3 -8 7 8 14 4 15 13 4 9 9 -2 37 33 12 0 -0 6 -0 9 2 8 -2 19 21 14 13 4 23 19 -20 -13 13 1 6 18 14 8 6 5 5
19 9 2 30 12 23 17 10 18 14 -5 -6 5 -6 13 19 -12 -18 6 5 4 2 11 13 9 4 1 1 13 20 11 17 25 21 -25 -15 25 12 19 14 10 2 -10 -0
7 1 16 6 6 -8 -16 -16 -17 -1 3 5 -3 0 2 -20 -5 4 9 14 30 29 9 2 12 14 10 4 3 7 14 19 17 19 20 24 9 0 17 17 20 4 6 4
18 3 -0 -30 -20 -6 3 11 17 17 18 -1 -22 -25 16 26 13 14 4 6 9 16 16 36 11 5 20 13 8 7 8 8 14 15 16 8 12 3 -0 -5 -2 5 5 -3
24 1 5 7 11 -0 1 16 11 9 9 15 -30 13 12 17 14 12 -9 14 8 19 21 16 19 20 19 21 19 13 10 10 8 14 20 17 18 15 10 0 11 -2 -2 -0
9 8 4 -2 8 6 3 23 75 55 38 27 31 4 -15 3 -0 9 2 19 20 17 11 12 15 15 20 22 23 24 15 12 10 12 15 18 20 18 22 21 18 -4 12 -2
8 3 4 7 24 7 48 -9 3 -8 -0 10 26 22 13 13 21 14 10 23 7 8 4 -1 -1 3 1 1 8 19 22 17 10 7 12 16 18 17 20 28 22 22 10 4
16 23 12 -5 42 25 28 -20 11 15 22 -12 1 12 26 29 42 24 24 8 4 2 1 -3 -7 -11 -12 2 15 12 4 19 20 15 11 10 15 21 4 18 21 14 8 28
11 18 2 -5 20 -13 37 17 -3 -6 5 16 8 5 2 -4 8 30 -0 18 9 4 7 7 5 5 4 -1 8 -2 21 11 11 19 16 20 16 4 5 22 7 15 12 22
12 14 13 1 3 -0 -31 -15 8 17 24 5 -16 2 5 -3 6 -9 -3 -1 -4 -4 -5 -6 -2 -1 1 3 8 11 7 30 8 10 18 21 11 17 10 10 20 13 20 15
25 27 19 14 -4 17 -10 -3 8 35 6 24 -15 -0 3 6 4 7 5 1 -4 -0 1 3 -2 -2 8 16 8 4 28 16 36 2 14 15 22 1 21 18 12 17 18 8
8 4 9 43 24 27 15 -11 -1 -2 -11 0 0 -1 -1 -1 -5 -10 -5 2 8 3 2 1 4 6 -6 15 14 9 14 14 4 30 4 14 13 11 12 8 5 -1 8 6
15 28 -9 -25 -28 -28 9 0 -3 -2 3 7 5 6 9 6 9 7 8 7 11 13 14 18 24 18 15 14 13 12 3 16 -12 25 16 8 11 9 10 6 13 -1 5 16
12 -4 14 11 15 -2 -27 -13 -6 -1 2 7 6 8 20 15 6 12 11 4 11 41 1 15 12 8 13 -6 5 21 12 1 14 -7 25 28 27 -6 12 13 5 16 -4 12
2 25 23 12 24 32 21 19 19 20 26 22 2 16 8 8 12 19 13 17 8 7 9 17 16 9 23 6 25 13 19 21 6 8 21 21 -1 42 7 14 6 -0 14 9
8 10 20 12 11 8 5 2 12 12 14 11 9 9 18 16 12 12 9 13 9 11 11 10 10 15 19 11 15 7 12 11 -2 17 11 25 9 29 26 2 7 20 14 19
Height
3096 3095 3090 3088 3086 3083 3080 3078 3074 3073 3072 3071 3069 3070 3073 3075 3076 3079 3076 3079 3078 3084 3088 3083 3091 3097 3101 3104 3107 3112 3115 3120 3125 3129 3133 3135 3138 3140 3143 3145 3147 3149 3151 3153
3099 3094 3092 3089 3086 3083 3080 3077 3074 3072 3070 3069 3068 3068 3070 3071 3074 3075 3075 3075 3078 3083 3087 3087 3083 3093 3096 3101 3105 3108 3111 3116 3121 3124 3127 3129 3131 3135 3138 3141 3143 3144 3146 3148
3099 3097 3093 3089 3086 3082 3079 3077 3074 3073 3069 3068 3068 3065 3067 3069 3072 3072 3071 3073 3080 3084 3085 3088 3086 3088 3094 3098 3102 3105 3108 3111 3115 3118 3120 3123 3127 3130 3133 3136 3138 3140 3142 3144
3100 3098 3094 3090 3086 3083 3079 3077 3074 3073 3071 3070 3069 3069 3066 3068 3071 3073 3075 3076 3081 3082 3082 3085 3086 3082 3088 3092 3099 3101 3103 3106 3110 3111 3114 3119 3123 3126 3129 3131 3133 3136 3137 3139
3103 3098 3094 3090 3087 3083 3080 3075 3073 3072 3072 3071 3071 3072 3069 3069 3072 3074 3076 3077 3080 3083 3079 3082 3082 3082 3080 3088 3094 3097 3099 3101 3104 3107 3110 3114 3117 3120 3122 3124 3127 3130 3132 3134
3102 3099 3096 3093 3089 3085 3080 3075 3073 3072 3072 3073 3072 3073 3072 3072 3075 3075 3074 3075 3076 3077 3077 3080 3080 3079 3076 3081 3087 3090 3095 3098 3099 3101 3105 3108 3112 3114 3116 3119 3121 3124 3126 3128
3102 3099 3097 3094 3090 3087 3083 3077 3076 3077 3076 3077 3074 3074 3074 3074 3074 3074 3073 3071 3071 3072 3074 3076 3076 3075 3076 3079 3082 3085 3087 3089 3093 3097 3098 3101 3104 3107 3110 3112 3114 3116 3120 3122
3104 3099 3098 3095 3093 3090 3085 3084 3084 3087 3086 3080 3074 3073 3074 3074 3073 3072 3072 3073 3072 3072 3074 3074 3074 3074 3077 3077 3076 3076 3079 3082 3084 3085 3090 3094 3096 3098 3102 3106 3108 3111 3113 3116
3105 3102 3099 3096 3093 3093 3089 3088 3088 3085 3083 3081 3076 3074 3072 3072 3073 3072 3072 3073 3073 3074 3074 3072 3069 3070 3070 3071 3072 3072 3074 3075 3077 3079 3083 3087 3089 3090 3095 3098 3100 3103 3105 3107
3106 3102 3099 3097 3094 3093 3092 3091 3089 3087 3087 3084 3076 3073 3071 3071 3071 3070 3071 3070 3069 3068 3067 3066 3065 3065 3065 3066 3066 3067 3066 3066 3071 3074 3075 3077 3083 3086 3087 3089 3091 3094 3097 3099
3105 3103 3100 3097 3095 3092 3093 3091 3091 3090 3089 3087 3084 3072 3070 3069 3068 3069 3069 3068 3067 3065 3064 3063 3063 3063 3063 3063 3062 3061 3060 3061 3063 3067 3070 3070 3072 3075 3079 3081 3084 3086 3089 3090
3102 3100 3096 3095 3091 3091 3091 3091 3091 3090 3089 3088 3086 3070 3067 3068 3066 3066 3065 3063 3062 3058 3058 3057 3057 3057 3057 3057 3057 3056 3054 3054 3056 3059 3061 3063 3066 3067 3069 3071 3074 3076 3080 3081
3101 3098 3094 3091 3092 3090 3089 3088 3088 3088 3086 3083 3084 3067 3065 3065 3064 3063 3060 3057 3054 3052 3050 3049 3049 3049 3049 3049 3048 3049 3048 3049 3050 3051 3053 3053 3055 3057 3057 3059 3064 3067 3067 3068
3097 3094 3092 3090 3089 3087 3083 3080 3081 3081 3079 3075 3068 3059 3060 3059 3058 3055 3054 3051 3049 3046 3043 3041 3041 3041 3040 3040 3040 3040 3040 3041 3042 3042 3043 3043 3044 3047 3049 3052 3054 3056 3058 3059
3092 3087 3088 3084 3084 3081 3077 3071 3070 3070 3068 3070 3057 3060 3056 3055 3053 3051 3049 3046 3044 3042 3039 3037 3036 3035 3034 3032 3031 3031 3032 3032 3031 3031 3032 3032 3034 3036 3037 3040 3042 3044 3047 3048
3086 3081 3080 3074 3078 3077 3067 3064 3059 3059 3059 3058 3056 3052 3053 3051 3048 3046 3045 3042 3039 3038 3036 3034 3032 3030 3028 3027 3025 3024 3023 3024 3024 3023 3022 3022 3023 3023 3025 3027 3029 3034 3036 3030
3080 3078 3077 3070 3072 3072 3065 3059 3057 3057 3058 3056 3053 3050 3047 3045 3043 3041 3039 3037 3036 3035 3033 3031 3029 3027 3026 3023 3021 3019 3017 3015 3015 3014 3014 3013 3012 3012 3013 3015 3018 3021 3025 3027
3072 3072 3073 3066 3068 3069 3057 3056 3055 3055 3054 3052 3048 3043 3039 3038 3037 3036 3035 3035 3033 3031 3029 3027 3024 3022 3021 3019 3016 3014 3011 3009 3006 3005 3004 3003 3003 3004 3004 3006 3008 3012 3015 3016
3069 3068 3066 3064 3060 3056 3054 3053 3052 3050 3049 3044 3041 3039 3035 3033 3031 3033 3032 3032 3030 3025 3023 3021 3018 3015 3013 3012 3010 3008 3006 3003 3000 2998 2996 2995 2994 2996 2997 2999 3001 3003 3005 3007
3064 3063 3062 3059 3058 3054 3049 3048 3047 3044 3039 3038 3035 3034 3031 3029 3027 3024 3023 3022 3019 3017 3015 3012 3010 3008 3005 3003 3001 2998 2997 2995 2994 2990 2988 2987 2988 2989 2990 2992 2994 2996 2999 3002
3058 3057 3056 3054 3052 3048 3044 3041 3042 3040 3037 3031 3029 3027 3026 3024 3022 3018 3017 3015 3012 3009 3007 3005 3001 2998 2997 2993 2992 2990 2987 2986 2984 2983 2981 2980 2981 2982 2983 2985 2988 2991 2994 2996
3055 3054 3051 3049 3047 3043 3038 3037 3039 3034 3029 3024 3023 3019 3015 3013 3011 3008 3004 3002 3000 2997 2996 2995 2991 2989 2987 2983 2980 2980 2978 2978 2976 2972 2972 2972 2974 2975 2977 2979 2982 2984 2987 2989
3050 3050 3048 3048 3043 3035 3031 3032 3029 3023 3017 3016 3013 3010 3005 3000 2997 2994 2990 2988 2986 2983 2980 2979 2978 2975 2975 2973 2969 2967 2969 2967 2966 2964 2963 2964 2965 2967 2969 2971 2973 2975 2978 2980
3038 3037 3038 3038 3035 3031 3029 3026 3021 3016 3011 3006 3002 2997 2994 2988 2984 2980 2976 2972 2969 2968 2966 2965 2964 2961 2960 2960 2957 2955 2956 2955 2955 2954 2954 2953 2953 2956 2959 2962 2964 2966 2968 2972
3028 3025 3024 3025 3024 3021 3023 3018 3012 3009 3006 3000 2996 2989 2983 2974 2971 2964 2958 2956 2954 2951 2950 2948 2947 2945 2945 2947 2943 2942 2942 2942 2943 2943 2943 2942 2943 2944 2948 2952 2954 2956 2959 2962
3018 3018 3017 3015 3013 3010 3008 3005 3002 2998 2993 2988 2980 2976 2973 2961 2955 2947 2942 2940 2936 2933 2932 2931 2931 2929 2929 2929 2928 2928 2929 2930 2931 2932 2932 2932 2932 2933 2937 2941 2944 2946 2950 2954